Regional Weather Roundup
Issued by NWS

Home | Current Version | Previous Version | Text Only | Print | Product List | Glossary On
Versions: 1 2 3 4 5 6 7 8 9 10 11 12 13 14 15 16 17 18 19 20 21 22 23 24 25 26 27 28 29 30 31 32 33 34 35 36 37 38 39 40 41 42 43 44 45 46 47 48 49 50
000
ASUS44 KFWD 241503
RWRTX
NORTH TEXAS HOURLY WEATHER ROUNDUP
NATIONAL WEATHER SERVICE FORT WORTH TX
900 AM CST FRI NOV 24 2017

NOTE: "FAIR" INDICATES FEW OR NO CLOUDS BELOW 12,000 FEET WITH NO
SIGNIFICANT WEATHER AND/OR OBSTRUCTIONS TO VISIBILITY.

TXZ118-119-241600-
DALLAS/FORT WORTH METROPLEX

CITY           SKY/WX    TMP DP  RH WIND       PRES   REMARKS
DFW AIRPORT    MOSUNNY   55  35  47 S8        29.93S
DALLAS LOVE    MOSUNNY   54  33  45 S6        29.95S
FTW MEACHAM    SUNNY     54  37  52 S7        29.93S
DAL-EXECUTIVE  SUNNY     54  35  48 S6        29.94S
FTW-ALLIANCE   MOSUNNY   54  35  48 VRB6      29.93S
FTW-NAS-JRB    SUNNY     54  35  48 S8        29.95R
FTW-SPINKS     SUNNY     54  34  47 S6        29.95F
ARLINGTON      SUNNY     52  34  50 S8        29.95S
GRAND PRAIRIE  SUNNY     54  32  43 S10       29.96F
ADDISON        SUNNY     54  34  47 SE3       29.95S
MESQUITE       SUNNY     50  36  57 SE9       29.97R
LANCASTER      SUNNY     51  34  51 S7        29.96F
$$

TXZ091>094-102>105-117-120-121-131>134-241600-
NORTH CENTRAL TEXAS

CITY           SKY/WX    TMP DP  RH WIND       PRES   REMARKS
SHRMAN/DENISON SUNNY     54  34  45 S8        29.94S
GAINESVILLE    SUNNY     51  34  53 S6        29.94S
BOWIE          SUNNY     51  36  56 S6        29.91F
BRIDGEPORT     SUNNY     48  36  62 CALM      29.93F
DECATUR        SUNNY     59  32  36 S6        29.91S
DENTON         SUNNY     50  40  68 CALM      29.93S
MCKINNEY       SUNNY     51  36  56 S7        29.95S
BONHAM         MOSUNNY   53  33  46 S10       29.95S
ROCKWALL       SUNNY     53  35  50 S10       29.97S
TERRELL        SUNNY     53  37  54 S8        29.97S
WAXAHACHIE     SUNNY     52  37  57 S6        29.96F
CLEBURNE       LGT RAIN  50  37  62 S10       29.97S
GRANBURY       SUNNY     53  41  64 CALM      29.96S
$$

TXZ083>090-098>101-113>116-127>130-139>142-154-155-241600-
WESTERN NORTH TEXAS

CITY           SKY/WX    TMP DP  RH WIND       PRES   REMARKS
WICHITA FALLS  SUNNY     54  35  48 S12       29.86F
WF-KICKAPOO    SUNNY     52  36  54 S6        29.90F
VERNON         SUNNY     54  32  42 SW9       29.86S
ABILENE        SUNNY     58  35  42 SW9       29.93F
ABILENE-DYESS  SUNNY     62  37  38 SW10      29.91F
GRAHAM           N/A     57  36  45 CALM      29.90S
BRECKENRIDGE   SUNNY     62  33  33 SW6       29.92S
CISCO          SUNNY     61  34  36 SW8       29.94R
EASTLAND       SUNNY     53  37  55 S3        29.94S
RANGER         SUNNY     54  35  49 SW9       29.94S
MINERAL WELLS  SUNNY     49  34  56 SE8       29.92S
STEPHENVILLE   SUNNY     49  37  62 CALM      29.98R
COMANCHE       SUNNY     60  37  42 SW8       29.96R
BROWNWOOD      SUNNY     52  36  54 S5        29.98S
COLEMAN        SUNNY     60  35  38 SW13      29.96S
$$

TXZ143>147-156>162-174-175-241600-
CENTRAL TEXAS

CITY           SKY/WX    TMP DP  RH WIND       PRES   REMARKS
WACO           SUNNY     54  35  48 S7        29.98F
WACO-MCGREGOR  SUNNY     57  37  47 S8        29.98F
HILLSBORO      SUNNY     54  35  49 S8        29.96S
CORSICANA      SUNNY     54  36  50 S9        29.99F
MEXIA          SUNNY     51  35  54 S13G20    29.98F
HEARNE         SUNNY     50  38  64 SE5       30.03F
CAMERON        SUNNY     55  35  47 SW12      30.01S
TEMPLE         SUNNY     53  34  48 S7        30.00F
KILLEEN        SUNNY     58  35  42 S6        29.97F
KILLEEN-SKYLRK SUNNY     53  36  52 S3        29.99F
FORT HOOD      SUNNY     54  35  49 S3        29.95F
GATESVILLE     SUNNY     55  37  50 CALM      29.99F
HAMILTON       SUNNY     57  38  48 SW9       29.98S
LAMPASAS       SUNNY     58  39  49 SW7       29.97F
$$

TXZ095>097-106>112-122>126-135>138-148>153-164>167-241600-
EAST TEXAS

CITY           SKY/WX    TMP DP  RH WIND       PRES   REMARKS
PARIS          SUNNY     51  38  60 S8        29.97F
SULPHUR SPRNGS SUNNY     53  35  49 S10       29.99S
MOUNT PLEASANT SUNNY     46  39  74 CALM      30.01S
GILMER         SUNNY     50  35  55 S9        30.00S
MINEOLA        SUNNY     54  36  50 S8        29.98S
TYLER          SUNNY     52  36  54 S9        30.00S
LONGVIEW       SUNNY     51  41  68 S9        30.00S
MARSHALL       SUNNY     45  37  73 S5        30.04S
ATHENS         SUNNY     46  34  61 S5        29.99S
PALESTINE      SUNNY     51  38  61 SE6       30.02F
JACKSONVILLE   SUNNY     52  36  55 S8        30.03S
HENDERSON      SUNNY     50  41  72 SE3       30.03S
CENTER         CLOUDY    49  41  72 CALM      30.05S
NACOGDOCHES    SUNNY     49  40  71 S3        30.04S
LUFKIN         SUNNY     49  40  71 S3        30.04S
$$

SUPPLEMENTAL OBSERVATIONS (NWS FORT WORTH AREA)

CITY           SKY/WX    TMP DP  RH WIND       PRES   REMARKS
$$

SUPPLEMENTAL OBSERVATIONS (NWS NORMAN AREA)

CITY           SKY/WX    TMP DP  RH WIND       PRES   REMARKS
GOODLETT         N/A     53  36  52 SW8       29.84S
ODELL            N/A     58  37  44 S7        29.86S
CROWELL          N/A     56  35  45 SW7       29.88R
KNOX CITY        N/A     54  34  46 SW10      29.90S
SEYMOUR          N/A     53  36  52 S9        29.88F
$$

SUPPLEMENTAL OBSERVATIONS (NWS SAN ANGELO AREA)

CITY           SKY/WX    TMP DP  RH WIND       PRES   REMARKS
WEINERT          N/A     55  35  46 S12       29.90F
HASKELL          N/A     53  33  47 S10       29.90F
THROCKMORTON     N/A     59  36  41 SW13      29.90F
STAMFORD         N/A     53  36  53 S7        29.92F
CLYDE            N/A     60  35  37 SW8       29.95S
$$

SUPPLEMENTAL OBSERVATIONS (NWS SHREVEPORT AREA)

CITY           SKY/WX    TMP DP  RH WIND       PRES   REMARKS
$$

SUPPLEMENTAL OBSERVATIONS ARE A COLLECTION OF AUTOMATED INSTRUMENTS
THAT ARE MAINTAINED BY A VARIETY OF FEDERAL AND STATE AGENCIES.
CERTAIN ELEMENTS...SUCH AS HUMIDITY VALUES AND SUSTAINED WIND
SPEEDS...MAY BE APPROXIMATED.





USA.gov is the U.S. government's official web portal to all federal, state and local government web resources and services.